Flugschule und Pilotenausbildung

Wir bieten eine professionelle und umfassende Ausbildung durch unsere erfahrenen Piloten, Fluglehrer und Prüfer, die Sie zum Erwerb der folgenden Lizenzen führen:

 

Schulungsräume

Je nach Teilnehmerzahl findet der Unterricht in zwei vollausgestatteten Räumen statt.

 Bis 5 Teilnehmer in Feldgeding bei Dachau:

Schulungsraum Feldgeding

Bei 6 oder mehr Teilnehmern in Gröbenzell:

Schulungsraum Gröbenzell

Flugzeuge

Wir schulen auf unseren eigenen Flugzeugen. Mehr Informationen zu unseren Flugzeugen finden Sie hier ...

 

Flugwetter Augsburg

[source: ADDS]
METAR
EDMA 231320Z 06006KT 010V170 CAVOK 30/12 Q1021 =
TAF EDMA 231100Z 2312/2321 08005KT CAVOK BECMG 2317/2319 VRB03KT
TAF
TAF EDMA 231100Z 2312/2321 08005KT CAVOK BECMG 2317/2319 VRB03KT =
Cookies erleichtern die Bereitstellung unserer Dienste. Mit der Nutzung unserer Dienste erklären Sie sich damit einverstanden, dass wir Cookies verwenden.
Weitere Informationen Ok